Погода Малые Кармакулы

Поиск расширенной информации на нашем сайте:

Полезная информация:

Новости сайта



02.01.2020
Опубликован Долгосрочный прогноз погоды по городам России и ближнего зарубежья на январь 2020 года.
Карты: Прогноз на январь и февраль 2020 года, Сравнение прогнозируемой аномалии приземной температуры воздуха на январь 2020 года по разным моделям.




Погода Малые Кармакулы - сегодня

Время (UTC), дата Ветер
(°,м/с) 
Видим.   Явления Облачность Т
(°С)
Тd
(°С)
f(%) Тe
(°С)
Pmin
(гПа)
dP
(гПа)
Po
(мм)
O2
(г/м3)
Тmin Tmax R s Состояние
почвы
03 29.11.20 200 (Ю) 7{15}  4000 м  дымка  10/9 480 м средняя 
[Sc|Ac und]
+1.1 +0.6 96 -3  1018.5  -1.7  763  306  +1.1        мокрый или
старый снег
10-40% 
06 29.11.20 200 (Ю) 8{11}  4000 м  дымка{дождь}  10/10 420 м 
[Sc]
+1.2 +0.7 96 -3  1015.5  -3  760  305           
09 29.11.20 210 (ЮЗ) 14{19}  4000 м  слаб. дождь  10/9 270 м средняя 
[Frnb|As op]
+1.3 +0.8 96 -4  1013.6  -1.9  759  304           
12 29.11.20 240 (ЮЗ) 12{19}  4000 м  дымка{дождь}  10/9 420 м средняя 
[Sc|Ac As]
+2.4 +1.6 94 -2  1013.5  -0.1  759  303           
15 29.11.20 230 (ЮЗ) 11{18}  4000 м  дымка  10/10 210 м 
[St]
+2.2 +1.7 96 -2  1014.2  0.7  759  303    +2.4     
18 29.11.20 240 (ЮЗ) 11{16}  4000 м  дымка  10/10 240 м 
[St]
+2.5 +2 96 -2  1014.4  0.2  759  303           
21 29.11.20 220 (ЮЗ) 11{14}  4000 м  дымка  10/10 270 м 
[St]
+2.1 +1.6 96 -3  1014.7  0.3  760  304           
00 30.11.20 210 (ЮЗ) 11{15}  4000 м  слаб. морось  10/10 240 м 
[St]
+1.6 +1.1 96 -3  1014.4  -0.3  759  304           
03 30.11.20 210 (ЮЗ) 11{16}  4000 м  дымка{морось}  10/10 210 м 
[St]
+1 +0.5 96 -4  1013.7  -0.7  759  305  +1    0.3    мокрый или
старый снег
10-40% 
06 30.11.20 200 (Ю) 11{14}  4000 м  слаб. морось{снег}  10/10 210 м 
[St]
+1.4 +0.9 96 -3  1012.6  -1.1  758  304           
09 30.11.20 210 (ЮЗ) 10{13}  4000 м  слаб. морось  10/10 210 м 
[St]
+1.6 +1.1 96 -3  1012.5  -0.1  758  303           
12 30.11.20 220 (ЮЗ) 10{15}  4000 м  слаб. морось{дождь}  10/10 210 м 
[St]
+1.8 +1.3 96 -3  1012.1  -0.4  758  303           
15 30.11.20 210 (ЮЗ) 8{12}  4000 м  дымка{морось}  10/10 500 м 
[Sc]
+1.7 +1.2 96 -2  1011.9  -0.2  758  303    +1.8     
18 30.11.20 200 (Ю) 8{11}  4000 м  дымка{морось}  10/10 240 м 
[St]
+1.1 +0.6 96 -3  1011.4  -0.5  757  304           
21 30.11.20 200 (Ю) 12{16}  4000 м  дымка  9/9 540 м 
[Sc]
+1 -0.1 92 -4  1010  -1.4  756  304           
00 01.12.20 230 (ЮЗ) 13{19}  20000 м    10/8 570 м средняя 
[Sc|Ac und]
+0.7 -1.3 86 -5  1008  -2  755  303           
03 01.12.20 220 (ЮЗ) 12{19}  20000 м    10/8 570 м средняя 
[Sc|Ac und]
+1.4 -0.5 87 -4  1006.9  -1.1  754  302  +0.6         
06 01.12.20 210 (ЮЗ) 13{18}  10 км  слаб. ливневой дождь  10/4 300 м кучево-дожд., средняя 
[Cb cap|Ac und]
+1.3 +0.8 96 -4  1005.4  -1.5  753  302           
09 01.12.20 210 (ЮЗ) 13{19}  10 км  слаб. ливневой дождь  10/8 400 м кучево-дожд., средняя 
[Cb cap|Ac und]
+1.5 +1 96 -4  1004.1  -1.3  752  301           
12 01.12.20 210 (ЮЗ) 14{19}  20000 м  {ливн. осадки}  10/4 300 м средняя 
[Cu hum|Ac und]
+1.2 +0.7 96 -4  1003  -1.1  751  301           
15 01.12.20 200 (Ю) 11{17}  20000 м    10/3 300 м средняя 
[Cu hum|Ac und]
+1.4 +0.3 92 -3  1000.7  -2.3  749  300    +1.6     
21 01.12.20 270 (З) 10{17}  4000 м  слаб. ливневой снег  10/4 300 м кучево-дожд., средняя 
[Cb cap|Ac und]
+0.5 -0.1 96 -4  996.1  -1.7  746  300           
00 02.12.20 290 (З) 13{18}  20000 м  {ливн. осадки}  8/3 300 м средняя 
[Cu hum|Ac trans]
-1 -3.2 85 -7  999.2  3.1  748  303           
03 02.12.20 280 (З) 14{19}  20000 м  {ливн. осадки}  8/4 300 м средняя 
[Cu med, cong|Ac trans]
-1.7 -7 67 -8  1002.1  2.9  750  305  -1.8    0.7     
06 02.12.20 310 (СЗ) 13{22}  20000 м  в посл. час ливневой снег  8/8 420 м 
[Cu med, cong]
-1.8 -8.3 61 -8  1005.6  3.5  753  306  -2.7         
Время (UTC), дата Ветер
(°,м/с) 
Видим.   Явления Облачность Т
(°С)
Тd
(°С)
f(%) Тe
(°С)
Pmin
(гПа)
dP
(гПа)
Po
(мм)
O2
(г/м3)
Тmin Tmax R s Состояние
почвы

Для получения пояснительной информации подведите курсор к названию столбца.

ПОГОДА Малые Кармакулы - архив

Всё, что Вы хотите узнать о погоде Малые Кармакулы - удобно и подробно!

Выберите нужную дату (начиная с 1 января 2019* года) и нажмите кнопку "Найти".
Будут отображены архивные сводки погоды по пункту Малые Кармакулы, начиная с указанной даты.


Отображать данные в формате CSV (для использования в таблицах Excel)


Внимание! Наш архив погоды предназначен исключительно для личного некоммерческого использования в познавательных целях. Если Вам необходимы официальные справки о состоянии погоды (для производственных, юридических, коммерческих и т.п. целей), обращайтесь в органы Росгидромета.

*Примечание: данная дата относится к архиву по метеостанциям СССР (Россия, СНГ, Балтия).
Архив по метеостанциям Зарубежной Европы и Азии (кроме Китая) хранится 10 дней, по другим регионам земного шара (Китай, Африка, Америка, Австралия, Океания) - 1 день.

Малые Кармакулы - район местоположения метеостанции


Название, широта, долгота, высота метеостанции:
Малые Кармакулы 72.4°ш. 52.7°д. 15 м над ур. моря [Российская Федерация]

Дополнительная информация

В oтличие oт бoльшинства пoгoдных сайтoв мы публикуем пoдрoбную метеoинфoрмацию в детальнoм прoфессиoнальнoм фoрмате.

Характеристики температуры и влажнoсти вoздуха измеряются на высoте 2 м в тени вдали oт зданий и деревьев.
Скoрoсть ветра измеряется на высoте 10 м (на урoвне рoста челoвека скoрoсть ветра ниже в 1.5-2 раза). Если метеoстанция нахoдится в гoрoде или в лесу, тo скoрoсть ветра занижена на 2-4 м/с пo сравнению с oткрытым местoм. Скoрoсть ветра над акватoриями крупных рек и oзёр, а также на вершинах хoлмoв на 2-5 м/с выше, чем в oбычных услoвиях.
Атмoсфернoе давление в разных тoчках местнoсти мoжет значительнo oтличаться oт давления на метеoстанции, в зависимoсти oт услoвий рельефа (при пoдъёме на 10 м давление пoнижается примернo на 1 мм рт.ст.).